Weather in Oleksandrivsk

Ukraine / Luhansk Region     48°35′12″N   39°11′15″E
temp.,
°C
wind,
m/s
gust,
m/s
humid.,
%
clouds,
%
prec.,
mm/h
press.,
hPa
HPBL,
m
12 may, wed
wed1200:00+7se91489100 0.1 1016927
03:00+7ese81292100 0.4 1017953
06:00+6ese71293100 0.2 1019591
09:00+7ese4892100 2.5 1019553
12:00+9se388975 0.3 1017586
15:00+14sse686080 0.5 10161542
18:00+13ssw477289 0.1 1016690
21:00+11se228090 0.1 101527
13 may, thu
thu1300:00+11sse358794 0.3 1014135
03:00+9nw11928 0.6 101510
06:00+10ese228872 0.0 101557
09:00+17sse47675 0.1 1014652
12:00+21sse56510 0.0 10141498
15:00+23sse45489 0.0 10131682
18:00+21se3565100 0.0 1014163
21:00+16se3381100 0.0 101435
14 may, fri
fri1400:00+15ese228726 0.0 101420
03:00+14ese34905 0.0 101352
06:00+15ese3108720 0.0 1013218
09:00+21se61060100 0.0 1013620
12:00+25se6749100 0.0 1012985
15:00+27se67465 0.0 10111074
18:00+25sse58625 0.0 1011355
21:00+19sse34835 0.0 101148
15 may, sat
sat1500:00+18s228453 0.0 101113
03:00+17wsw118988 0.1 101111
06:00+17w2383100 1.0 101275
09:00+21wnw21615 1.1 1012398
12:00+25w2248100 0.0 10131098
15:00+27wnw134170 0.0 10121912
18:00+26w12513 0.0 1012203
21:00+20n11690 0.0 101211
16 may, sun
sun1600:00+17n33755 0.0 101353
03:00+15n228313 0.0 101216
06:00+16nne26865 0.0 1012199
09:00+22ene566699 0.0 1011584
12:00+25e564898 0.0 1010933
15:00+27ese7941100 0.0 10091295
18:00+25e595457 0.0 1008410
21:00+19ene4867100 0.0 1007124